Regional Weather Roundup
Issued by NWS Spokane, WA

Home | Current Version | Previous Version | Text Only | Print | Product List | Glossary On
Versions: 1 2 3 4 5 6 7 8 9 10 11 12 13 14 15 16 17 18 19 20 21 22 23 24 25 26 27 28 29 30 31 32 33 34 35 36 37 38 39 40 41 42 43 44 45 46 47 48 49 50
000
NZUS01 KOTX 232200
RWROTX

Eastern Washington/Northern Idaho Roundup
National Weather Service, Spokane WA
300 PM PDT MON OCT 23 2017

Note: "fair" indicated few or no clouds below 12,000 feet with no
significant weather and/or obstructions to visibility.

...Northeast Washington and Northern Idaho Panhandle...

CITY           SKY/WX    TMP DP  RH WIND       PRES   REMARKS
Spokane Intl   MOSUNNY   54  36  50 SW9       30.67S
Spokane Downto MOSUNNY   58  39  49 CALM      30.67F
Coeur d Alene  MOSUNNY   55  39  54 VRB3      30.67F
Deer Park      SUNNY     54  39  57 SW3       30.68S

...Southeast Washington and southern Idaho Panhandle...

CITY           SKY/WX    TMP DP  RH WIND       PRES   REMARKS
Walla Walla    SUNNY     64  41  42 W7        30.65S
Pullman/Moscow MOSUNNY   55  37  50 CALM      30.68S
Lowell           N/A     58  50  75 CALM      30.67F

...Columbia Basin...

CITY           SKY/WX    TMP DP  RH WIND       PRES   REMARKS
Ephrata        MOSUNNY   60  34  37 VRB3      30.66S
Moses Lake     SUNNY     60  37  42 CALM      30.67S
Pasco          SUNNY     64  44  48 CALM      30.66F
Hermiston      SUNNY     65  43  44 N5        30.64F
Pendleton      SUNNY     63  42  46 VRB7      30.64F

...East Slopes Cascades...

CITY           SKY/WX    TMP DP  RH WIND       PRES   REMARKS
The Dalles     SUNNY     65  47  52 CALM      30.63F
Yakima         SUNNY     63  37  38 E6        30.66S
Ellensburg     SUNNY     62  38  40 VRB3      30.65S
Wenatchee      CLOUDY    59  36  42 E8        30.65S
Omak           CLOUDY    56  38  50 S8        30.66F
Sunnyside      CLEAR     61  38  41 CALM      30.66S

...Southern British Columbia...

CITY           SKY/WX    TMP DP  RH WIND       PRES   REMARKS

...Western Montana...

CITY           SKY/WX    TMP DP  RH WIND       PRES   REMARKS
Kalispell      CLEAR     54  30  40 S5        30.60F
Missoula       MOSUNNY   55  31  39 MISG      30.66S

...Neighboring Cities...

CITY           SKY/WX    TMP DP  RH WIND       PRES   REMARKS
Seattle        PTSUNNY   63  46  54 W3        30.63S
Portland       SUNNY     62  51  67 W8        30.59F
Boise          MOSUNNY   59  35  40 N10       30.65S
Great Falls    SUNNY     56  15  20 W14G22    30.53R



USA.gov is the U.S. government's official web portal to all federal, state and local government web resources and services.